Fresno, CA

11:14 PM PST on November 16, 2019 (GMT -0800)
Fresno Yosemite International

Weather History for KFAT - September, 2019

Change the Weather History Date:

Monday, September 16, 2019

  Actual Average Record
Temperature  
Mean Temperature 73 °F 76 °F  
Max Temperature 83 °F 91 °F 105 °F (1937)
Min Temperature 62 °F 62 °F 49 °F (1954)
Degree Days  
Heating Degree Days 0    
Month to date heating degree days 0  
Since 1 July heating degree days 0  
Cooling Degree Days 8    
Month to date cooling degree days 260  
Year to date cooling degree days 2201  
Growing Degree Days 22 (Base 50)    
Moisture  
Dew Point 52 °F    
Average Humidity 58    
Maximum Humidity 84    
Minimum Humidity 31    
Precipitation  
Precipitation 0.00 in 0.01 in 0.26 in (1891)
Month to date precipitation 0.00 0.06  
Year to date precipitation 9.52 7.92  
Snow  
Snow 0.00 in - - ()
Month to date snowfall 0.0  
Since 1 July snowfall 0.0  
Since 1 September snowfall 0.0  
Snow Depth 0.00 in    
Sea Level Pressure  
Sea Level Pressure 29.90 in    
Wind  
Wind Speed 11 mph (NW)    
Max Wind Speed 25 mph    
Max Gust Speed 32 mph    
Visibility 10 miles    
Events      
T = Trace of Precipitation, MM = Missing Value Source: NWS Daily Summary

Daily Weather History Graph

Daily Weather History Graph

Search for Another Location

Airport or City:

Astronomy

Sep. 16, 2019 Rise Set
Actual Time 6:41 AM PDT 7:05 PM PDT
Civil Twilight 6:15 AM PDT 7:30 PM PDT
Nautical Twilight 5:45 AM PDT 8:01 PM PDT
Astronomical Twilight 5:14 AM PDT 8:32 PM PDT
Moon 8:45 PM PDT (9/16) 8:51 AM PDT (9/16)
Length of Visible Light 13h 15m
Length of Day
12h 23m
Waning Gibbous, 94% of the Moon is Illuminated
Sep 16
Waning Gibbous
Sep 21
Last Quarter
Sep 28
New
Oct 5
First Quarter
Oct 13
Full

Hourly Weather History & Observations

Time (PDT) Temp. Heat Index Dew Point Humidity Pressure Visibility Wind Dir Wind Speed Gust Speed Precip Events Conditions
12:53 AM 69.1 °F - 51.1 °F 53% 29.84 in 10.0 mi NNW 9.2 mph - N/A   Clear
1:53 AM 66.9 °F - 53.1 °F 61% 29.84 in 10.0 mi Variable 3.5 mph - N/A   Scattered Clouds
2:53 AM 66.0 °F - 55.9 °F 70% 29.84 in 10.0 mi WNW 11.5 mph - N/A   Mostly Cloudy
3:53 AM 64.9 °F - 57.0 °F 75% 29.85 in 10.0 mi WNW 10.4 mph - N/A   Scattered Clouds
4:53 AM 64.0 °F - 57.9 °F 80% 29.86 in 10.0 mi NW 9.2 mph - N/A   Partly Cloudy
5:53 AM 63.0 °F - 57.0 °F 81% 29.87 in 10.0 mi NW 8.1 mph - N/A   Scattered Clouds
6:53 AM 62.1 °F - 57.0 °F 84% 29.88 in 10.0 mi NW 8.1 mph - N/A   Mostly Cloudy
7:53 AM 64.0 °F - 57.9 °F 80% 29.91 in 10.0 mi WNW 10.4 mph - N/A   Mostly Cloudy
8:53 AM 66.9 °F - 57.9 °F 73% 29.91 in 10.0 mi NNE 4.6 mph - N/A   Mostly Cloudy
9:53 AM 71.1 °F - 57.0 °F 61% 29.93 in 10.0 mi NE 4.6 mph - N/A   Mostly Cloudy
10:53 AM 75.0 °F - 55.9 °F 51% 29.93 in 10.0 mi East 4.6 mph - N/A   Mostly Cloudy
11:53 AM 77.0 °F - 54.0 °F 45% 29.92 in 10.0 mi ESE 5.8 mph - N/A   Mostly Cloudy
12:53 PM 79.0 °F - 52.0 °F 39% 29.92 in 10.0 mi SSW 8.1 mph - N/A   Mostly Cloudy
1:53 PM 82.0 °F - 48.0 °F 30% 29.91 in 10.0 mi NW 9.2 mph - N/A   Mostly Cloudy
2:53 PM 80.1 °F 80.4 °F 57.0 °F 45% 29.91 in 7.0 mi WNW 13.8 mph - N/A   Mostly Cloudy
3:53 PM 75.9 °F - 55.9 °F 50% 29.91 in 8.0 mi NNW 25.3 mph 31.1 mph N/A   Mostly Cloudy
4:53 PM 75.0 °F - 46.0 °F 36% 29.91 in 9.0 mi NNW 21.9 mph 28.8 mph N/A   Mostly Cloudy
5:53 PM 75.9 °F - 42.1 °F 30% 29.91 in 9.0 mi NNW 21.9 mph 29.9 mph N/A   Mostly Cloudy
6:53 PM 73.9 °F - 41.0 °F 30% 29.90 in 10.0 mi NW 15.0 mph - N/A   Mostly Cloudy
7:53 PM 71.1 °F - 43.0 °F 36% 29.90 in 10.0 mi NW 11.5 mph - N/A   Partly Cloudy
8:53 PM 70.0 °F - 44.1 °F 39% 29.91 in 10.0 mi NW 8.1 mph - N/A   Partly Cloudy
9:53 PM 68.0 °F - 45.0 °F 43% 29.93 in 10.0 mi NW 11.5 mph - N/A   Partly Cloudy
10:53 PM 66.0 °F - 46.0 °F 48% 29.94 in 10.0 mi NW 13.8 mph - N/A   Partly Cloudy
11:53 PM 64.9 °F - 48.0 °F 54% 29.95 in 10.0 mi NW 17.3 mph - N/A   Scattered Clouds